Tiempo cada hora Cayo Levantado

Hoy, 18 Abril, Domingo

Tiempo Temperatura Precipitaciones Viento Presión Humedad
00:00 +24°C° 0 mm 2 mps 747 mmHg 93%
01:00 +24°C° 0 mm 2 mps 747 mmHg 94%
02:00 +24°C° 0 mm 2 mps 746 mmHg 95%
03:00 +24°C° 0 mm 2 mps 746 mmHg 95%
04:00 +24°C° 0 mm 1 mps 746 mmHg 95%
05:00 +25°C° 0 mm 1 mps 747 mmHg 91%
06:00 +25°C° 0 mm 1 mps 747 mmHg 88%
07:00 +26°C° 0 mm 1 mps 748 mmHg 84%
08:00 +27°C° 0 mm 2 mps 748 mmHg 77%
09:00 +29°C° 0 mm 2 mps 748 mmHg 69%
10:00 +30°C° 0 mm 2 mps 748 mmHg 62%
11:00 +31°C° 0 mm 3 mps 748 mmHg 57%
12:00 +33°C° 0 mm 4 mps 747 mmHg 53%
13:00 +34°C° 0 mm 5 mps 747 mmHg 48%
14:00 +33°C° 0 mm 5 mps 746 mmHg 52%
15:00 +32°C° 0 mm 5 mps 746 mmHg 55%
16:00 +30°C° 0 mm 5 mps 746 mmHg 59%
17:00 +29°C° 0 mm 5 mps 746 mmHg 66%
18:00 +28°C° 0 mm 4 mps 747 mmHg 73%
19:00 +26°C° 0 mm 4 mps 747 mmHg 80%
20:00 +26°C° 0 mm 3 mps 748 mmHg 82%
21:00 +25°C° 0 mm 3 mps 748 mmHg 83%
22:00 +24°C° 0 mm 3 mps 748 mmHg 84%
23:00 +24°C° 0 mm 2 mps 748 mmHg 86%

Mañana, 19 Abril, Lunes

Tiempo Temperatura Precipitaciones Viento Presión Humedad
00:00 +24°C° 0 mm 2 mps 748 mmHg 87%
01:00 +24°C° 0 mm 2 mps 748 mmHg 89%
02:00 +24°C° 0 mm 2 mps 748 mmHg 90%
03:00 +24°C° 0 mm 2 mps 747 mmHg 90%
04:00 +24°C° 0 mm 2 mps 747 mmHg 91%
05:00 +25°C° 0 mm 2 mps 748 mmHg 86%
06:00 +25°C° 0 mm 2 mps 749 mmHg 82%
07:00 +26°C° 0 mm 2 mps 749 mmHg 78%
08:00 +28°C° 0 mm 3 mps 749 mmHg 70%
09:00 +29°C° 0 mm 3 mps 749 mmHg 62%
10:00 +32°C° 0 mm 4 mps 749 mmHg 55%
11:00 +32°C° 0 mm 4 mps 749 mmHg 53%
12:00 +33°C° 0 mm 5 mps 748 mmHg 52%
13:00 +33°C° 0 mm 5 mps 748 mmHg 51%
14:00 +32°C° 0 mm 5 mps 747 mmHg 53%
15:00 +32°C° 0 mm 5 mps 747 mmHg 56%
16:00 +30°C° 0 mm 6 mps 747 mmHg 58%
17:00 +29°C° 0 mm 5 mps 747 mmHg 65%
18:00 +28°C° 0 mm 5 mps 748 mmHg 71%
19:00 +26°C° 0 mm 5 mps 748 mmHg 78%
20:00 +26°C° 0 mm 4 mps 748 mmHg 78%
21:00 +25°C° 0 mm 4 mps 749 mmHg 78%
22:00 +25°C° 0 mm 3 mps 749 mmHg 79%
23:00 +24°C° 0 mm 3 mps 749 mmHg 83%

Pasado mañana, 20 Abril, Martes

Tiempo Temperatura Precipitaciones Viento Presión Humedad
00:00 +24°C° 0 mm 3 mps 748 mmHg 86%
01:00 +24°C° 0 mm 2 mps 748 mmHg 90%
02:00 +24°C° 0 mm 2 mps 748 mmHg 91%
03:00 +23°C° 0 mm 2 mps 748 mmHg 92%
04:00 +23°C° 0 mm 2 mps 748 mmHg 93%
05:00 +24°C° 0 mm 2 mps 748 mmHg 87%
06:00 +25°C° 0 mm 3 mps 749 mmHg 82%
07:00 +26°C° 0 mm 3 mps 749 mmHg 77%
08:00 +28°C° 0 mm 3 mps 749 mmHg 69%
09:00 +29°C° 0 mm 4 mps 750 mmHg 62%
10:00 +30°C° 0 mm 4 mps 750 mmHg 54%
11:00 +32°C° 0 mm 5 mps 749 mmHg 53%
12:00 +32°C° 0 mm 5 mps 749 mmHg 51%
13:00 +33°C° 0 mm 6 mps 748 mmHg 50%
14:00 +32°C° 0 mm 6 mps 748 mmHg 54%
15:00 +30°C° 0 mm 6 mps 747 mmHg 58%
16:00 +29°C° 0 mm 6 mps 747 mmHg 62%
17:00 +28°C° 0 mm 5 mps 748 mmHg 69%
18:00 +27°C° 0 mm 5 mps 748 mmHg 75%
19:00 +26°C° 0 mm 5 mps 748 mmHg 82%
20:00 +25°C° 0 mm 5 mps 749 mmHg 83%
21:00 +25°C° 0 mm 4 mps 749 mmHg 85%
22:00 +25°C° 0 mm 4 mps 749 mmHg 86%
23:00 +23°C° 0 mm 4 mps 749 mmHg 88%

21 Abril, Miércoles

Tiempo Temperatura Precipitaciones Viento Presión Humedad
00:00 +24°C° 0 mm 3 mps 748 mmHg 89%
01:00 +24°C° 0 mm 3 mps 748 mmHg 90%
02:00 +24°C° 0.1 mm 3 mps 748 mmHg 91%
03:00 +24°C° 0.1 mm 2 mps 748 mmHg 91%
04:00 +24°C° 0.1 mm 2 mps 748 mmHg 91%
05:00 +25°C° 0 mm 2 mps 748 mmHg 87%
06:00 +25°C° 0 mm 2 mps 749 mmHg 82%
07:00 +26°C° 0 mm 2 mps 749 mmHg 77%
08:00 +27°C° 0 mm 3 mps 749 mmHg 69%
09:00 +29°C° 0 mm 3 mps 749 mmHg 61%
10:00 +30°C° 0 mm 4 mps 749 mmHg 53%
11:00 +30°C° 0 mm 5 mps 749 mmHg 53%
12:00 +32°C° 0 mm 5 mps 748 mmHg 52%
13:00 +32°C° 0 mm 6 mps 748 mmHg 51%
14:00 +30°C° 0 mm 6 mps 747 mmHg 57%
15:00 +30°C° 0 mm 6 mps 747 mmHg 62%
16:00 +29°C° 0 mm 6 mps 747 mmHg 68%
17:00 +28°C° 0.1 mm 6 mps 747 mmHg 74%
18:00 +27°C° 0.1 mm 5 mps 747 mmHg 79%
19:00 +26°C° 0.1 mm 5 mps 748 mmHg 85%
20:00 +25°C° 0 mm 4 mps 748 mmHg 86%
21:00 +25°C° 0 mm 4 mps 748 mmHg 86%
22:00 +23°C° 0 mm 4 mps 748 mmHg 87%
23:00 +24°C° 0 mm 3 mps 748 mmHg 87%

22 Abril, Jueves

Tiempo Temperatura Precipitaciones Viento Presión Humedad
00:00 +24°C° 0 mm 3 mps 748 mmHg 87%
01:00 +24°C° 0 mm 3 mps 747 mmHg 87%
02:00 +24°C° 0 mm 3 mps 747 mmHg 88%
03:00 +24°C° 0 mm 3 mps 747 mmHg 89%
04:00 +22°C° 0 mm 3 mps 747 mmHg 90%
05:00 +24°C° 0 mm 3 mps 747 mmHg 87%
06:00 +25°C° 0 mm 3 mps 748 mmHg 85%
07:00 +26°C° 0 mm 3 mps 748 mmHg 82%
08:00 +27°C° 0 mm 3 mps 748 mmHg 73%
09:00 +29°C° 0 mm 3 mps 748 mmHg 63%
10:00 +30°C° 0 mm 4 mps 749 mmHg 54%
11:00 +30°C° 0 mm 4 mps 748 mmHg 55%
12:00 +32°C° 0 mm 5 mps 747 mmHg 55%
13:00 +32°C° 0 mm 5 mps 747 mmHg 56%
14:00 +30°C° 0.1 mm 5 mps 746 mmHg 60%
15:00 +29°C° 0.1 mm 5 mps 746 mmHg 64%
16:00 +28°C° 0.1 mm 5 mps 746 mmHg 67%
17:00 +28°C° 0.3 mm 4 mps 746 mmHg 72%
18:00 +27°C° 0.3 mm 4 mps 747 mmHg 76%
19:00 +26°C° 0.3 mm 4 mps 747 mmHg 81%
20:00 +25°C° 0.1 mm 4 mps 747 mmHg 84%
21:00 +25°C° 0.1 mm 3 mps 748 mmHg 86%
22:00 +25°C° 0.1 mm 3 mps 748 mmHg 89%
23:00 +24°C° 0.3 mm 3 mps 748 mmHg 90%

23 Abril, Viernes

Tiempo Temperatura Precipitaciones Viento Presión Humedad
00:00 +24°C° 0.3 mm 3 mps 747 mmHg 90%
01:00 +24°C° 0.3 mm 3 mps 747 mmHg 91%
02:00 +24°C° 0.3 mm 3 mps 747 mmHg 91%
03:00 +24°C° 0.3 mm 3 mps 747 mmHg 91%
04:00 +24°C° 0.3 mm 3 mps 747 mmHg 91%
05:00 +24°C° 0.9 mm 3 mps 747 mmHg 90%
06:00 +25°C° 0.9 mm 4 mps 748 mmHg 88%
07:00 +26°C° 0.9 mm 4 mps 748 mmHg 86%
08:00 +27°C° 0.1 mm 4 mps 748 mmHg 78%
09:00 +28°C° 0.1 mm 4 mps 748 mmHg 69%
10:00 +30°C° 0.1 mm 4 mps 749 mmHg 60%
11:00 +30°C° 0 mm 4 mps 748 mmHg 60%
12:00 +30°C° 0 mm 4 mps 748 mmHg 59%
13:00 +30°C° 0 mm 5 mps 747 mmHg 59%
14:00 +30°C° 0 mm 5 mps 747 mmHg 61%
15:00 +29°C° 0 mm 5 mps 747 mmHg 64%
16:00 +28°C° 0 mm 5 mps 746 mmHg 67%
17:00 +27°C° 0.2 mm 5 mps 747 mmHg 73%
18:00 +26°C° 0.2 mm 4 mps 747 mmHg 78%
19:00 +25°C° 0.2 mm 4 mps 747 mmHg 84%
20:00 +25°C° 0.1 mm 4 mps 747 mmHg 85%
21:00 +25°C° 0.1 mm 4 mps 748 mmHg 87%
22:00 +25°C° 0.1 mm 3 mps 748 mmHg 88%
23:00 +25°C° 0.4 mm 4 mps 747 mmHg 88%
Mostrar más

Necesitamos Su Consentimiento

Meteoprog y nuestros Proveedores de Servicios pueden almacenar y acceder a sus datos personales como cookies, identificadores de dispositivo u otras tecnologías similares de su dispositivo y procesar dichos datos para personalizar contenido y anuncios, además de ofrecer funciones de redes sociales y analizar el tráfico.

  • Almacenar y/o acceder a información en su dispositivo

    Se puede almacenar o acceder a cookies, identificadores de dispositivo u otra información de su dispositivo para los fines anteriormente indicados.

  • Anuncios y contenido personalizados, medición de anuncios y contenido, percepciones del público, y desarrollo de productos

    Los anuncios y el contenido pueden personalizarse en base a su perfil. Se pueden añadir más datos para personalizar mejor los anuncios y contenidos. Se puede medir el rendimiento de los anuncios y contenidos. Se puede obtener la percepción sobre el público que ha visto los anuncios y contenidos. Dichos datos pueden usarse para desarrollar o mejorar la experiencia del usuario, sistemas y software.

Al hacer clic en ‘Estoy De Acuerdo’ usted permitirá el uso de las cookies, identificadores de dispositivo, balizas web u otras tecnologías similares indicadas. Su configuración puede cambiarse desde el navegador de su dispositivo.

Para ciertos fines, los intereses legítimos pueden ser considerados por encima del consentimiento. Puede leer más sobre ello en nuestra Política de Privacidad y Cookies.